Charlottesville, VA

3:28 PM EDT on May 23, 2018 (GMT -0400)
Charlottesville-Albemarle

Weather History for KCHO - November, 2013

Change the Weather History Date:

Saturday, November 23, 2013

  Actual Average Record
Temperature  
Mean Temperature 48 °F 44 °F  
Max Temperature 62 °F 55 °F 78 °F (1913)
Min Temperature 33 °F 34 °F 10 °F (1935)
Degree Days  
Heating Degree Days 17 21  
Month to date heating degree days 392 388  
Since 1 July heating degree days 707 737  
Cooling Degree Days 0 0  
Month to date cooling degree days 1 0  
Year to date cooling degree days 1146 1034  
Moisture  
Dew Point 25 °F    
Average Humidity 45    
Maximum Humidity 69    
Minimum Humidity 20    
Precipitation  
Precipitation 0.00 in 0.12 in 0.91 in (2011)
Month to date precipitation 0.49 2.91  
Year to date precipitation 38.18 38.64  
Sea Level Pressure  
Sea Level Pressure 30.10 in    
Wind  
Wind Speed 9 mph (NNW)    
Max Wind Speed 21 mph    
Max Gust Speed 29 mph    
Visibility 10 miles    
Events      
T = Trace of Precipitation, MM = Missing Value Source: NWS Daily Summary

Daily Weather History Graph

Daily Weather History Graph

Search for Another Location

Airport or City:

Astronomy

Nov. 23, 2013 Rise Set
Actual Time 7:03 AM EST 4:56 PM EST
Civil Twilight 6:34 AM EST 5:25 PM EST
Nautical Twilight 6:02 AM EST 5:57 PM EST
Astronomical Twilight 5:31 AM EST 6:29 PM EST
Moon 10:21 PM EST 11:21 AM EST
Length of Visible Light 10h 50m
Length of Day
9h 53m
Waning Gibbous, 70% of the Moon is Illuminated
Nov 23
Waning Gibbous
Nov 25
Last Quarter
Dec 2
New
Dec 9
First Quarter
Dec 17
Full

Hourly Weather History & Observations

Time (EST) Temp. Windchill Dew Point Humidity Pressure Visibility Wind Dir Wind Speed Gust Speed Precip Events Conditions
12:53 AM 60.1 °F - 46.9 °F 62% 30.03 in 10.0 mi NNW 6.9 mph - N/A   Partly Cloudy
1:53 AM 57.0 °F - 46.0 °F 67% 30.06 in 10.0 mi NNW 9.2 mph 18.4 mph N/A   Clear
2:53 AM 53.1 °F - 43.0 °F 69% 30.07 in 10.0 mi North 10.4 mph - N/A   Clear
3:53 AM 51.1 °F - 39.9 °F 66% 30.08 in 10.0 mi North 6.9 mph - N/A   Clear
4:53 AM 50.0 °F - 37.9 °F 63% 30.11 in 10.0 mi North 8.1 mph - N/A   Mostly Cloudy
5:53 AM 46.9 °F - 36.0 °F 66% 30.12 in 10.0 mi North 9.2 mph - N/A   Clear
6:53 AM 46.0 °F 41.4 °F 34.0 °F 63% 30.14 in 10.0 mi North 9.2 mph - N/A   Clear
7:53 AM 46.0 °F 40.6 °F 33.1 °F 61% 30.13 in 10.0 mi NNW 11.5 mph 23.0 mph N/A   Clear
8:53 AM 46.9 °F - 30.0 °F 52% 30.14 in 10.0 mi NNW 11.5 mph 23.0 mph N/A   Clear
9:53 AM 46.9 °F - 28.0 °F 48% 30.15 in 10.0 mi NW 16.1 mph 23.0 mph N/A   Clear
10:53 AM 48.0 °F - 26.1 °F 42% 30.14 in 10.0 mi NNW 6.9 mph - N/A   Clear
11:53 AM 50.0 °F - 21.0 °F 32% 30.10 in 10.0 mi Variable 5.8 mph - N/A   Clear
12:53 PM 53.1 °F - 25.0 °F 34% 30.07 in 10.0 mi SSE 5.8 mph - N/A   Clear
1:53 PM 54.0 °F - 18.0 °F 24% 30.03 in 10.0 mi WNW 5.8 mph - N/A   Clear
2:53 PM 55.0 °F - 17.1 °F 23% 30.02 in 10.0 mi NW 8.1 mph - N/A   Clear
3:53 PM 52.0 °F - 14.0 °F 22% 30.03 in 10.0 mi Variable 5.8 mph - N/A   Clear
4:53 PM 50.0 °F - 10.9 °F 21% 30.04 in 10.0 mi NNW 5.8 mph - N/A   Clear
5:53 PM 46.0 °F 40.6 °F 12.0 °F 25% 30.07 in 10.0 mi NNW 11.5 mph 21.9 mph N/A   Clear
6:53 PM 43.0 °F 37.7 °F 12.0 °F 28% 30.11 in 10.0 mi NNW 9.2 mph - N/A   Clear
7:53 PM 42.1 °F 36.1 °F 15.1 °F 34% 30.12 in 10.0 mi WNW 10.4 mph 20.7 mph N/A   Scattered Clouds
8:53 PM 39.9 °F 32.9 °F 17.1 °F 40% 30.13 in 10.0 mi NNW 11.5 mph 24.2 mph N/A   Partly Cloudy
9:53 PM 37.9 °F 31.5 °F 14.0 °F 38% 30.15 in 10.0 mi NW 9.2 mph 25.3 mph N/A   Scattered Clouds
10:53 PM 36.0 °F 29.0 °F 12.9 °F 39% 30.18 in 10.0 mi NW 9.2 mph 19.6 mph N/A   Mostly Cloudy
11:53 PM 33.1 °F 23.4 °F 17.1 °F 52% 30.21 in 10.0 mi NW 13.8 mph 28.8 mph N/A   Overcast